Regional Weather Roundup
Issued by NWS

Home | Current Version | Previous Version | Text Only | Print | Product List | Glossary Off
Versions: 1 2 3 4 5 6 7 8 9 10 11 12 13 14 15 16 17 18 19 20 21 22 23 24 25 26 27

000
ASUS45 KCYS 191210
RWRWY

WYOMING REGIONAL WEATHER ROUNDUP
NATIONAL WEATHER SERVICE CHEYENNE WY
600 AM MDT SAT APR 19 2014

NOTE:  "FAIR" INDICATES FEW OR NO CLOUDS BELOW 12,000 FEET
WITH NO SIGNIFICANT WEATHER AND/OR OBSTRUCTIONS TO VISIBILITY.

WYZ001-191300-
YELLOWSTONE NATIONAL PARK

CITY           SKY/WX    TMP DP  RH WIND       PRES   REMARKS
LK YELLOWSTONE   N/A     18  15  88 CALM      30.05S
6HR MIN TEMP:  18; 6HR MAX TEMP:  27;

W YELLOWSTONE  NOT AVBL

$$
WYZ002>013-054>058-071-098>099-191300-
NORTHERN WYOMING

CITY           SKY/WX    TMP DP  RH WIND       PRES   REMARKS
JACKSON          N/A     28  25  86 W5        30.04R WCI  23
CODY           PTCLDY    30  23  74 CALM      29.97R
GREYBULL       PTCLDY    34  29  82 SE5       29.96R WCI  30
6HR MIN TEMP:  33; 6HR MAX TEMP:  46;

WORLAND        CLEAR     34  28  79 CALM      29.96R
6HR MIN TEMP:  31; 6HR MAX TEMP:  42;

SHERIDAN         N/A     36  25  64 CALM        N/A
6HR MIN TEMP:  30; 6HR MAX TEMP:  37;

BUFFALO        PTCLDY    37  25  61 CALM      30.00R
6HR MIN TEMP:  31; 6HR MAX TEMP:  39;

GILLETTE       CLEAR     30  22  72 SW5       30.00R WCI  25
6HR MIN TEMP:  26; 6HR MAX TEMP:  43;

HULETT         FAIR      37  18  44 S8        29.99  WCI  31
NEWCASTLE      FAIR      34  21  60 CALM      30.00

$$
WYZ014>020-022>026-101>103-191300-
CENTRAL WYOMING

CITY           SKY/WX    TMP DP  RH WIND       PRES   REMARKS
BIG PINEY      CLEAR     22  13  68 CALM      30.06S
6HR MIN TEMP:  18; 6HR MAX TEMP:  30;

PINEDALE       SUNNY     23  18  80 W8        30.07R WCI  14
DUBOIS         FAIR      32  10  40 NW8       30.00R WCI  25
LANDER         CLEAR     34  19  54 E7        29.96S WCI  28
6HR MIN TEMP:  32; 6HR MAX TEMP:  44;

RIVERTON       CLEAR     38  14  37 SW5       29.98S WCI  34
6HR MIN TEMP:  35; 6HR MAX TEMP:  47;

CASPER         PTCLDY    27  23  85 N5        30.01R WCI  22
6HR MIN TEMP:  25; 6HR MAX TEMP:  43;

DOUGLAS        CLEAR     33  30  88 CALM      30.03R
6HR MIN TEMP:  33; 6HR MAX TEMP:  53;


$$
WYZ021-027>030-104>119-191300-
SOUTHERN WYOMING

CITY           SKY/WX    TMP DP  RH WIND       PRES   REMARKS
EVANSTON       PTCLDY    37  30  75 NE3       30.06S
6HR MIN TEMP:  35; 6HR MAX TEMP:  44;

FORT BRIDGER   CLOUDY    37  27  66 CALM      30.09S
ROCK SPRINGS   CLOUDY    40  26  57 W5        30.05S
6HR MIN TEMP:  40; 6HR MAX TEMP:  47;

DIXON          CLOUDY    36  32  84 SE6       30.10R WCI  31
RAWLINS        CLEAR     37  27  67 SW5       30.05S WCI  33
6HR MIN TEMP:  37; 6HR MAX TEMP:  46;

SARATOGA       FAIR      32  28  86 SE3       30.07S
LARAMIE        CLOUDY    41  31  67 W7        30.06R
6HR MIN TEMP:  31; 6HR MAX TEMP:  41;

CHEYENNE       CLOUDY    48  32  53 NW7       30.00R
6HR MIN TEMP:  47; 6HR MAX TEMP:  54;

TORRINGTON     CLOUDY    44  28  53 N9        29.99R
6HR MIN TEMP:  43; 6HR MAX TEMP:  58;

PINE BLUFFS    FAIR      45  36  70 N20G32    30.00R

$$



USA.gov is the U.S. government's official web portal to all federal, state and local government web resources and services.